Home   Weather   Biberach an der Riss   Past weeks

Flag for Germany Past Weather in Biberach an der Riss, Baden-Württemberg, Germany — Yesterday and Last 2 Weeks

Now
52 °F

Fog.


Feels Like: 49 °F
Forecast: 50 / 69 °F
Wind: 8 mph from Southwest

Location: Laupheim Airport

Current Time: Sep 28, 2016 at 10:43:40 AM

Latest Report: Sep 28, 2016 at 9:45 AM


Visibility: 0 mi

Pressure: 30.45 "Hg (28.55 "Hg at 536m altitude)

Humidity: 100%

Dew Point: 52 °F

Location of Biberach an der RissLocation

Past Weather in Biberach an der Riss — Graph

°F

Biberach an der Riss Temperature Yesterday

Maximum temperature yesterday: 66 °F (at 3:20 PM)
Minimum temperature yesterday: 52 °F (at 1:20 AM)
Average temperature yesterday: 58 °F

High & Low Weather Summary for the Past Weeks

 TemperatureHumidityPressure
High82 °F (Sep 13, 3:20 PM)100% (Sep 14, 6:20 AM)30.42 "Hg (Sep 14, 6:20 AM)
Low39 °F (Sep 22, 5:20 AM)37% (Sep 13, 3:20 PM)29.86 "Hg (Sep 15, 4:20 AM)
Average57 °F81%30.10 "Hg
* Reported Sep 13 9:20 AM — Sep 28 9:20 AM, Biberach an der Riss, Weather by CustomWeather, © 2016

Note: Actual official high and low records may vary slightly from our data, if they occured in-between our weather recording intervals... More about our weather records

Advertising

Biberach an der Riss Weather History for the Previous 24 Hours

Scroll right to see more
 ConditionsComfort  
Time TempWeatherWind HumidityBarometerVisibility
9:20 AM
Wed, Sep 28
50 °FFog.8 mph100%30.42 "Hg0 mi
8:20 AM48 °FFog.6 mph100%30.42 "Hg0 mi
7:20 AM46 °FFog.5 mph100%30.42 "Hg0 mi
6:20 AM46 °FFog.3 mph100%30.39 "Hg0 mi
5:20 AM46 °FFog.3 mph100%30.39 "Hg0 mi
4:20 AM48 °FFog.2 mph100%30.39 "Hg0 mi
3:20 AM50 °FFog.2 mph100%30.39 "Hg0 mi
2:20 AM50 °FFog.1 mph100%30.39 "Hg0 mi
1:20 AM50 °FFog.1 mph100%30.39 "Hg2 mi
12:20 AM52 °FCool.1 mph94%30.39 "Hg4 mi
11:20 PM
Tue, Sep 27
52 °FCool.1 mph94%30.39 "Hg4 mi
10:20 PM54 °FCool.5 mph94%30.39 "HgN/A
9:20 PM55 °FPassing clouds.1 mph94%30.39 "HgN/A
8:20 PM57 °FPassing clouds.3 mph88%30.36 "HgN/A
7:20 PM61 °FPassing clouds.3 mph77%30.36 "HgN/A
6:20 PM64 °FPassing clouds.5 mph64%30.33 "HgN/A
5:20 PM66 °FPassing clouds.6 mph56%30.33 "HgN/A
5:00 PM66 °FPassing clouds.6 mph60%30.33 "HgN/A
4:20 PM66 °FPassing clouds.1 mph60%30.33 "HgN/A
3:20 PM66 °FScattered clouds.6 mph60%30.30 "HgN/A
2:20 PM64 °FScattered clouds.5 mph68%30.30 "HgN/A
1:20 PM63 °FScattered clouds.7 mph73%30.33 "HgN/A
12:20 PM61 °FScattered clouds.2 mph77%30.33 "HgN/A
11:20 AM59 °FPartly sunny.3 mph82%30.30 "HgN/A
10:20 AM57 °FFog.1 mph88%30.30 "Hg3 mi
Weather by CustomWeather, © 2016

See weather overviewHow to use our weather pages